Simultaneous Nadir Overpasses (SNOs) Predictions

Prediction of SNOs between NOAA-19 and NPP Satellite Orbit:

Table of predicted SNOs for the next 14.0 days since TLE Epoch: 5/27/2013
Index Date (NOAA-19) Time (NOAA-19) Lat,Lon (NOAA-19) SZA (NOAA-19 ) Date (NPP) Time (NPP) Lat,Lon (NPP) SZA (NPP ) Distance(km) Time Diff (sec)
1 06/01/2013 19:48:17 -80.93, 9.97 117.51 06/01/2013 19:49:24 -80.93, 10.10 117.56 2.41 67
2 06/01/2013 20:39:20 80.91, 177.83 62.40 06/01/2013 20:40:08 80.91, 177.84 62.37 0.26 48
3 06/01/2013 21:30:19 -80.90, -14.62 117.65 06/01/2013 21:30:52 -80.90, -14.59 117.68 0.63 33
4 06/01/2013 22:21:22 80.88, 153.24 62.25 06/01/2013 22:21:36 80.88, 153.15 62.26 1.60 14
5 06/01/2013 23:12:21 -80.86, -39.22 117.80 06/01/2013 23:12:20 -80.87, -39.28 117.79 1.16 1
6 06/02/2013
